This demonstration page uses our WeatherBlox Daily Observations layout. Learn more.

41.55636, -103.73856

Hourly Observations for January 7, 2018

Temp ( °F °C ) Dew Point ( °F °C ) Humidity (%) Winds ( mph kmh ) Pressure ( in mb ) Visibility ( mi km ) Precip ( " mm )
12:53 am 00:53 Cloudy 37 2.8 30 -1.1 76 76 W 14 22 29.91 1013 10 16.09344 0 0
1:53 am 01:53 Cloudy with Light Rain 41 5 33 0.6 73 73 NNW 22 35 29.94 1014 10 16.09344 0.001 0.001
2:53 am 02:53 Cloudy 45 7.2 33 0.6 63 63 NW 13 20 29.94 1014 10 16.09344 0.001 0.001
3:53 am 03:53 Cloudy 38 3.3 34 1.1 86 86 WNW 12 19 29.94 1014 10 16.09344 0 0
4:53 am 04:53 Mostly Cloudy 38 3.3 33 0.6 83 83 WNW 13 20 29.97 1015 10 16.09344 0 0
5:53 am 05:53 Partly Cloudy 38 3.3 31 -0.6 76 76 WNW 7 11 30 1016 10 16.09344 0 0
6:53 am 06:53 Clear 33 0.6 26 -3.3 75 75 NW 7 11 30.06 1018 10 16.09344 0 0
7:53 am 07:53 Sunny 31 -0.6 23 -5 72 72 NW 8 13 30.06 1018 10 16.09344 0 0
8:53 am 08:53 Sunny 38 3.3 29 -1.7 70 70 WNW 10 17 30.06 1018 10 16.09344 0 0
9:53 am 09:53 Sunny 43 6.1 31 -0.6 63 63 WNW 9 15 30.06 1018 10 16.09344 0 0
10:53 am 10:53 Sunny 44 6.7 32 0 63 63 W 13 20 30.06 1018 10 16.09344 0 0
11:53 am 11:53 Sunny 49 9.4 31 -0.6 50 50 WNW 12 19 30.03 1017 10 16.09344 0 0
12:53 pm 12:53 Sunny 46 7.8 31 -0.6 56 56 WNW 10 17 30 1016 10 16.09344 0 0
1:53 pm 13:53 Sunny 49 9.4 32 0 52 52 WNW 9 15 30 1016 10 16.09344 0 0
2:53 pm 14:53 Sunny 51 10.6 32 0 48 48 NNW 5 7 29.97 1015 10 16.09344 0 0
3:53 pm 15:53 Sunny 49 9.4 31 -0.6 50 50 NNW 5 7 30.03 1017 10 16.09344 0 0
4:53 pm 16:53 Clear 47 8.3 29 -1.7 50 50 W 5 7 30.03 1017 10 16.09344 0 0
5:53 pm 17:53 Clear 39 3.9 28 -2.2 65 65 W 3 6 30.06 1018 10 16.09344 0 0
6:53 pm 18:53 Clear 34 1.1 26 -3.3 73 73 WNW 5 7 30.12 1020 10 16.09344 0 0
7:53 pm 19:53 Clear 31 -0.6 24 -4.4 76 76 Calm 30.12 1020 10 16.09344 0 0
8:53 pm 20:53 Clear 28 -2.2 21 -6.1 75 75 Calm 30.15 1021 10 16.09344 0 0
9:53 pm 21:53 Clear 25 -3.9 19 -7.2 78 78 NNE 5 7 30.12 1020 10 16.09344 0 0
10:53 pm 22:53 Clear 25 -3.9 19 -7.2 78 78 NNE 3 6 30.12 1020 10 16.09344 0 0
11:53 pm 23:53 Clear 24 -4.4 19 -7.2 81 81 Calm 30.09 1019 10 16.09344 0 0

Powered by AerisWeather